Tracking 18816 objects as of 17-October-2017
HD Live streaming from Space Station
objects crossing your sky now

FLOCK 2K 20

Track FLOCK 2K 20 now!
10-day predictions
FLOCK 2K 20 is classified as:


NORAD ID: 42885
Int'l Code: 2017-042BN
Perigee: 463.0 km
Apogee: 478.1 km
Inclination: 97.0 °
Period: 93.9 minutes
Semi major axis: 6841 km
RCS: Unknown
Launch date: July 14, 2017
Source: United States (US)
Launch site: TYURATAM MISSILE AND SPACE COMPLEX (TTMTR)
aabbcc
Your satellite tracking list
Your tracking list is empty





NASA's NSSDC Master Catalog

Two Line Element Set (TLE):
1 42885U 17042BN  17289.49438252 +.00002901 +00000-0 +89811-4 0  9998
2 42885 096.9953 193.5419 0011064 262.6515 097.3472 15.34171776014246
Source of the keplerian elements: AFSPC